Location: Unspecified
(44.4377°N, 88.0525°W)
Time: 00:36:04
(UTC-05:00)

Resurs 1-4 Rocket - Visible Passes

Search period start: 31 October 2014 00:00
Search period end: 09 November 2014 23:00
Orbit: 801 x 814 km, 98.4° (Epoch: 29 October)

Date Brightness Start Highest point End Pass type
(mag) Time Alt. Az. Time Alt. Az. Time Alt. Az.
31 Oct 4.7 03:31:33 10° NE 03:34:27 15° E 03:35:26 14° E visible
31 Oct 1.9 05:09:35 10° N 05:14:54 76° WNW 05:16:31 46° SSW visible
31 Oct 3.9 06:51:58 10° NW 06:53:51 12° NW 06:55:43 10° WNW visible
01 Nov 2.3 04:45:11 10° NNE 04:50:28 68° ESE 04:51:33 53° SSE visible
01 Nov 3.4 06:26:14 10° NNW 06:29:47 19° WNW 06:32:37 13° W visible
02 Nov 3.2 03:20:57 10° NNE 03:25:58 41° E 03:26:35 39° ESE visible
02 Nov 2.9 05:01:10 10° N 05:05:38 28° WNW 05:07:40 22° W visible
03 Nov 4.0 02:57:00 10° NE 03:01:21 25° E 03:01:38 25° E visible
03 Nov 2.3 04:36:23 10° N 04:41:24 44° WNW 04:42:42 37° WSW visible
04 Nov 4.7 02:33:34 10° NE 02:36:40 16° E 02:36:40 16° E visible
04 Nov 1.9 04:11:47 10° N 04:17:04 72° WNW 04:17:44 63° WSW visible
04 Nov 3.9 05:54:27 10° NW 05:55:59 11° NW 05:57:30 10° WNW visible
05 Nov 2.2 03:47:21 10° NNE 03:52:39 71° ESE 03:52:47 71° ESE visible
05 Nov 3.5 05:28:31 10° NNW 05:31:56 18° WNW 05:33:51 15° W visible
06 Nov 3.1 03:23:06 10° NNE 03:27:49 43° E 03:27:49 43° E visible
06 Nov 3.0 05:03:24 10° N 05:07:47 27° WNW 05:08:53 25° W visible
07 Nov 4.0 02:59:07 10° NE 03:02:51 26° E 03:02:51 26° E visible
07 Nov 2.4 04:38:36 10° N 04:43:33 42° WNW 04:43:55 42° W visible
08 Nov 4.7 02:35:36 10° NE 02:37:53 16° ENE 02:37:53 16° ENE visible
08 Nov 2.0 04:13:59 10° N 04:18:58 67° NW 04:18:58 67° NW visible
08 Nov 3.9 05:57:03 10° NW 05:58:06 11° NW 05:59:10 10° WNW visible
09 Nov 2.4 03:49:31 10° NNE 03:54:00 62° NE 03:54:00 62° NE visible
09 Nov 3.5 05:30:48 10° NNW 05:34:04 17° WNW 05:35:05 16° WNW visible
